Location: Quaker Farms
(41.4276°N, 73.1557°W)
Time: 14:17:24
(UTC+00:00)

Transit 2A - All Passes

Search period start: 22 June 2021 00:00
Search period end: 02 July 2021 00:00
Orbit: 600 x 958 km, 66.7° (Epoch: 21 June)

Date Brightness Start Highest point End Pass type
(mag) Time Alt. Az. Time Alt. Az. Time Alt. Az.
22 Jun - 04:37:00 10° N 04:41:17 28° NE 04:45:55 10° ESE visible
22 Jun - 06:19:44 10° NW 06:24:33 43° WSW 06:29:51 10° S visible
22 Jun - 19:19:20 10° SE 19:22:00 16° ESE 19:24:41 10° ENE daylight
22 Jun - 21:00:31 10° SW 21:04:42 46° NW 21:08:57 10° NNE daylight
23 Jun - 04:03:12 10° N 04:06:55 21° NE 04:10:53 10° E visible
23 Jun - 05:45:23 10° NW 05:50:25 65° WSW 05:55:59 10° SSE visible
23 Jun - 20:26:08 10° SW 20:30:28 73° WNW 20:34:51 10° NNE daylight
23 Jun - 22:13:46 10° NW 22:14:28 10° NW 22:15:12 10° NNW daylight
24 Jun - 03:29:35 10° N 03:32:29 15° NE 03:35:31 10° ENE visible
24 Jun - 05:11:10 10° NNW 05:16:15 87° ENE 05:21:53 10° SSE visible
24 Jun - 06:56:43 10° W 06:58:52 12° WSW 07:01:05 10° SW visible
24 Jun - 19:51:59 10° SSW 19:56:18 71° ESE 20:00:40 10° NE daylight
24 Jun - 21:37:32 10° WNW 21:39:57 14° NW 21:42:26 10° N daylight
25 Jun - 02:56:30 10° NNE 02:57:58 11° NE 02:59:29 10° NE visible
25 Jun - 04:37:02 10° NNW 04:42:03 61° ENE 04:47:34 10° SE visible
25 Jun - 06:21:15 10° WNW 06:24:52 19° WSW 06:28:43 10° SSW visible
25 Jun - 19:18:04 10° S 19:22:12 43° ESE 19:26:20 10° NE daylight
25 Jun - 21:02:16 10° W 21:05:32 20° NW 21:08:51 10° N daylight
26 Jun - 04:03:00 10° NNW 04:07:47 42° NE 04:13:03 10° SE visible
26 Jun - 05:46:26 10° NW 05:50:49 28° WSW 05:55:34 10° SSW visible
26 Jun - 18:44:26 10° S 18:48:08 27° ESE 18:51:50 10° NE daylight
26 Jun - 20:27:22 10° WSW 20:31:09 29° NW 20:35:02 10° N daylight
27 Jun - 03:29:03 10° N 03:33:30 30° NE 03:38:18 10° ESE visible
27 Jun - 05:11:54 10° NW 05:16:44 41° WSW 05:22:01 10° S visible
27 Jun - 18:11:13 10° SSE 18:14:07 18° ESE 18:17:01 10° ENE daylight
27 Jun - 19:52:43 10° SW 19:56:52 43° NW 20:01:04 10° NNE daylight
28 Jun - 02:55:13 10° N 02:59:08 22° NE 03:03:20 10° E visible
28 Jun - 04:37:32 10° NW 04:42:36 60° WSW 04:48:12 10° SSE visible
28 Jun - 17:39:04 10° ESE 17:40:09 11° ESE 17:41:16 10° E daylight
28 Jun - 19:18:19 10° SW 19:22:37 67° WNW 19:27:01 10° NNE daylight
29 Jun - 02:21:33 10° N 02:24:42 16° NE 02:28:03 10° E visible
29 Jun - 04:03:17 10° NNW 04:08:26 87° WSW 04:14:08 10° SSE visible
29 Jun - 05:49:14 10° W 05:51:01 12° WSW 05:52:51 10° SW visible
29 Jun - 18:44:07 10° SSW 18:48:26 77° ESE 18:52:50 10° NNE daylight
29 Jun - 20:29:56 10° WNW 20:32:11 14° NW 20:34:27 10° N daylight
30 Jun - 01:48:14 10° NNE 01:50:13 12° NE 01:52:16 10° ENE visible
30 Jun - 03:29:09 10° NNW 03:34:14 66° ENE 03:39:52 10° SE visible
30 Jun - 05:13:32 10° WNW 05:17:02 18° WSW 05:20:43 10° SSW visible
30 Jun - 18:10:09 10° S 18:14:19 48° ESE 18:18:32 10° NE daylight
30 Jun - 19:54:35 10° W 19:57:43 19° NW 20:00:56 10° N daylight
01 Jul - 02:55:05 10° NNW 03:00:00 46° NE 03:05:23 10° SE visible
01 Jul - 04:38:39 10° NW 04:42:59 26° WSW 04:47:39 10° SSW visible
01 Jul - 17:36:28 10° S 17:40:14 30° ESE 17:44:04 10° NE daylight
01 Jul - 19:19:37 10° WSW 19:23:20 27° NW 19:27:08 10° N daylight
